Location: Altleiningen
(49.5078°N, 8.0741°E)
Time: 05:42:23
(UTC+00:00)

Okean-O - Pass Details

Date: 14 June 2025
Orbit: 628 x 631 km, 98.0° (Epoch: 12 July)

Event Time Altitude Azimuth Distance (km) Brightness Sun altitude
Exits shadow 20:50:17 - 191° (SSW) 2,809 5.5 -9.2°
Reaches altitude 10° 20:52:25 10° 201° (SSW) 2,008 4.9 -9.4°
Maximum altitude 20:56:19 31° 264° (W) 1,109 4.2 -9.7°
Drops below altitude 10° 21:00:15 10° 328° (NNW) 2,022 6.8 -10.1°
Sets 21:02:40 0° 338° (NNW) 2,934 7.9 -10.3°
